| time (UTC) | temp C | wind direction | speed KPH | gust KPH | rain 1hr cm | rain 24hr cm | rain mn cm | humidity % | barometer mb |
| 20260905171019 | 22 | 128 | 1.6 | 6.4 | 0.00 | 0.00 | 0.00 | 64 | 1009.9 |
| 20260905170023 | 22 | 0.0 | 0.0 | 0.00 | 0.00 | 0.00 | 63 | 1010.0 | |
| 20260905165026 | 23 | 164 | 0.0 | 4.8 | 0.00 | 0.00 | 0.00 | 62 | 1010.0 |
| 20260905164029 | 22 | 0.0 | 0.0 | 0.00 | 0.00 | 0.00 | 60 | 1009.9 | |
| 20260905163035 | 23 | 0.0 | 0.0 | 0.00 | 0.00 | 0.00 | 58 | 1009.9 | |
| 20260905162018 | 24 | 0.0 | 0.0 | 0.00 | 0.00 | 0.00 | 58 | 1010.0 | |
| 20260905161021 | 23 | 158 | 0.0 | 1.6 | 0.00 | 0.00 | 0.00 | 60 | 1010.0 |
| 20260905160025 | 23 | 0.0 | 0.0 | 0.00 | 0.00 | 0.00 | 61 | 1010.0 | |
| 20260905155048 | 22 | 0.0 | 0.0 | 0.00 | 0.00 | 0.00 | 62 | 1009.9 | |
| 20260905154025 | 23 | 0.0 | 0.0 | 0.00 | 0.00 | 0.00 | 59 | 1010.1 | |
| 20260905153017 | 22 | 0.0 | 0.0 | 0.00 | 0.00 | 0.00 | 62 | 1010.1 | |
| 20260905152100 | 22 | 0.0 | 0.0 | 0.00 | 0.00 | 0.00 | 63 | 1010.0 | |
| 20260905151017 | 22 | 0.0 | 0.0 | 0.00 | 0.00 | 0.00 | 64 | 1010.0 | |
| 20260905150026 | 21 | 0.0 | 0.0 | 0.00 | 0.00 | 0.00 | 65 | 1010.1 | |
| 20260905145030 | 22 | 0.0 | 0.0 | 0.00 | 0.00 | 0.00 | 65 | 1009.9 | |
| 20260905144015 | 21 | 0.0 | 0.0 | 0.00 | 0.00 | 0.00 | 65 | 1010.1 | |
| 20260905143038 | 21 | 0.0 | 0.0 | 0.00 | 0.00 | 0.00 | 66 | 1010.1 | |
| 20260905142021 | 21 | 0.0 | 0.0 | 0.00 | 0.00 | 0.00 | 67 | 1010.1 | |
| 20260905141025 | 21 | 0.0 | 0.0 | 0.00 | 0.00 | 0.00 | 66 | 1009.9 | |
| 20260905140028 | 20 | 0.0 | 0.0 | 0.00 | 0.00 | 0.00 | 68 | 1010.0 | |
| 20260905135031 | 20 | 0.0 | 0.0 | 0.00 | 0.00 | 0.00 | 68 | 1009.7 | |
| 20260905134017 | 20 | 0.0 | 0.0 | 0.00 | 0.00 | 0.00 | 71 | 1009.7 | |
| 20260905133020 | 20 | 0.0 | 0.0 | 0.00 | 0.00 | 0.00 | 71 | 1009.6 | |
| 20260905132023 | 20 | 0.0 | 0.0 | 0.00 | 0.00 | 0.00 | 71 | 1009.5 | |
| 20260905131026 | 19 | 0.0 | 0.0 | 0.00 | 0.00 | 0.00 | 73 | 1009.5 | |
| 20260905130030 | 19 | 0.0 | 0.0 | 0.00 | 0.00 | 0.00 | 73 | 1009.6 | |
| 20260905125015 | 19 | 0.0 | 0.0 | 0.00 | 0.00 | 0.00 | 75 | 1009.5 | |
| 20260905124018 | 18 | 0.0 | 0.0 | 0.00 | 0.00 | 0.00 | 76 | 1009.4 | |
| 20260905123022 | 18 | 0.0 | 0.0 | 0.00 | 0.00 | 0.00 | 76 | 1009.3 | |
| 20260905122025 | 18 | 0.0 | 0.0 | 0.00 | 0.00 | 0.00 | 76 | 1009.2 | |
| 20260905121028 | 18 | 0.0 | 0.0 | 0.00 | 0.00 | 0.00 | 77 | 1008.9 | |
| 20260905120025 | 18 | 0.0 | 0.0 | 0.00 | 0.00 | 0.00 | 78 | 1008.9 | |
| 20260905115037 | 17 | 0.0 | 0.0 | 0.00 | 0.00 | 0.00 | 78 | 1008.8 | |
| 20260905114020 | 17 | 270 | 0.0 | 1.6 | 0.00 | 0.00 | 0.00 | 78 | 1008.7 |
| 20260905113017 | 17 | 0.0 | 0.0 | 0.00 | 0.00 | 0.00 | 78 | 1008.7 | |
| 20260905112047 | 17 | 0.0 | 0.0 | 0.00 | 0.00 | 0.00 | 79 | 1008.7 | |
| 20260905111030 | 17 | 0.0 | 0.0 | 0.00 | 0.00 | 0.00 | 79 | 1008.8 | |
| 20260905110015 | 16 | 0.0 | 0.0 | 0.00 | 0.00 | 0.00 | 80 | 1008.5 | |
| 20260905105039 | 16 | 0.0 | 0.0 | 0.00 | 0.00 | 0.00 | 80 | 1008.6 | |
| 20260905104021 | 16 | 0.0 | 0.0 | 0.00 | 0.00 | 0.00 | 80 | 1008.4 | |
| 20260905103025 | 16 | 0.0 | 0.0 | 0.00 | 0.00 | 0.00 | 79 | 1008.4 | |
| 20260905102028 | 16 | 0.0 | 0.0 | 0.00 | 0.00 | 0.00 | 79 | 1008.4 | |
| 20260905101052 | 16 | 0.0 | 0.0 | 0.00 | 0.00 | 0.00 | 79 | 1008.3 | |
| 20260905100017 | 16 | 0.0 | 0.0 | 0.00 | 0.00 | 0.00 | 79 | 1008.1 | |
| 20260905095020 | 16 | 0.0 | 0.0 | 0.00 | 0.00 | 0.00 | 79 | 1008.3 | |
| 20260905094044 | 16 | 0.0 | 0.0 | 0.00 | 0.00 | 0.00 | 79 | 1008.1 | |
| 20260905093027 | 16 | 0.0 | 0.0 | 0.00 | 0.00 | 0.00 | 79 | 1008.0 | |
| 20260905092030 | 16 | 0.0 | 0.0 | 0.00 | 0.00 | 0.00 | 79 | 1008.1 | |
| 20260905091036 | 16 | 0.0 | 0.0 | 0.00 | 0.00 | 0.00 | 78 | 1008.2 | |
| 20260905090019 | 16 | 0.0 | 0.0 | 0.00 | 0.00 | 0.00 | 78 | 1007.9 | |
| 20260905085022 | 16 | 0.0 | 0.0 | 0.00 | 0.00 | 0.00 | 78 | 1007.9 | |
| 20260905084025 | 16 | 0.0 | 0.0 | 0.00 | 0.00 | 0.00 | 78 | 1007.9 | |
| 20260905083029 | 16 | 0.0 | 0.0 | 0.00 | 0.00 | 0.00 | 78 | 1008.0 | |
| 20260905082026 | 16 | 0.0 | 0.0 | 0.00 | 0.00 | 0.00 | 78 | 1008.0 | |
| 20260905081017 | 16 | 0.0 | 0.0 | 0.00 | 0.00 | 0.00 | 78 | 1007.8 | |
| 20260905080021 | 16 | 0.0 | 0.0 | 0.00 | 0.00 | 0.00 | 78 | 1007.7 | |
| 20260905075018 | 16 | 0.0 | 0.0 | 0.00 | 0.00 | 0.00 | 78 | 1007.8 | |
| 20260905074015 | 16 | 0.0 | 0.0 | 0.00 | 0.00 | 0.00 | 78 | 1007.9 | |
| 20260905073031 | 16 | 0.0 | 0.0 | 0.00 | 0.00 | 0.00 | 78 | 1008.0 | |
| 20260905072016 | 16 | 0.0 | 0.0 | 0.00 | 0.00 | 0.00 | 77 | 1008.0 | |
| 20260905071019 | 16 | 0.0 | 0.0 | 0.00 | 0.00 | 0.00 | 77 | 1008.2 | |
| 20260905070043 | 17 | 0.0 | 0.0 | 0.00 | 0.00 | 0.00 | 77 | 1008.2 | |
| 20260905065026 | 17 | 0.0 | 0.0 | 0.00 | 0.00 | 0.00 | 77 | 1008.2 | |
| 20260905064029 | 17 | 0.0 | 0.0 | 0.00 | 0.00 | 0.00 | 77 | 1008.3 | |
| 20260905063033 | 17 | 0.0 | 0.0 | 0.00 | 0.00 | 0.00 | 77 | 1008.4 | |
| 20260905062018 | 17 | 0.0 | 0.0 | 0.00 | 0.00 | 0.00 | 77 | 1008.4 | |
| 20260905061041 | 17 | 0.0 | 0.0 | 0.00 | 0.00 | 0.00 | 77 | 1008.4 | |
| 20260905060045 | 17 | 0.0 | 0.0 | 0.00 | 0.00 | 0.00 | 77 | 1008.4 | |
| 20260905055028 | 17 | 0.0 | 0.0 | 0.00 | 0.00 | 0.00 | 77 | 1008.5 | |
| 20260905054031 | 17 | 0.0 | 0.0 | 0.00 | 0.00 | 0.00 | 77 | 1008.5 | |
| 20260905053016 | 17 | 0.0 | 0.0 | 0.00 | 0.00 | 0.00 | 76 | 1008.5 | |
| 20260905052020 | 17 | 0.0 | 0.0 | 0.00 | 0.00 | 0.00 | 76 | 1008.6 | |
| 20260905051023 | 17 | 0.0 | 0.0 | 0.00 | 0.00 | 0.00 | 77 | 1008.4 | |
| 20260905050026 | 17 | 0.0 | 0.0 | 0.00 | 0.00 | 0.00 | 78 | 1008.3 | |
| 20260905045030 | 17 | 0.0 | 0.0 | 0.00 | 0.00 | 0.00 | 78 | 1008.3 | |
| 20260905044015 | 17 | 0.0 | 0.0 | 0.00 | 0.00 | 0.00 | 78 | 1008.4 | |
| 20260905043018 | 17 | 0.0 | 0.0 | 0.00 | 0.00 | 0.00 | 78 | 1008.5 | |
| 20260905042022 | 17 | 0.0 | 0.0 | 0.00 | 0.00 | 0.00 | 77 | 1008.5 | |
| 20260905041019 | 17 | 0.0 | 0.0 | 0.00 | 0.00 | 0.00 | 77 | 1008.5 | |
| 20260905040016 | 17 | 0.0 | 0.0 | 0.00 | 0.00 | 0.00 | 76 | 1008.4 | |
| 20260905035052 | 17 | 0.0 | 0.0 | 0.00 | 0.00 | 0.00 | 76 | 1008.4 | |
| 20260905034017 | 17 | 0.0 | 0.0 | 0.00 | 0.00 | 0.00 | 76 | 1008.4 | |
| 20260905033020 | 18 | 0.0 | 0.0 | 0.00 | 0.00 | 0.00 | 76 | 1008.5 | |
| 20260905032023 | 18 | 0.0 | 0.0 | 0.00 | 0.00 | 0.00 | 76 | 1008.7 | |
| 20260905031027 | 18 | 0.0 | 0.0 | 0.00 | 0.00 | 0.00 | 75 | 1008.6 | |
| 20260905030030 | 18 | 0.0 | 0.0 | 0.00 | 0.00 | 0.00 | 75 | 1008.7 | |
| 20260905025015 | 18 | 0.0 | 0.0 | 0.00 | 0.00 | 0.00 | 74 | 1008.7 | |
| 20260905024019 | 18 | 0.0 | 0.0 | 0.00 | 0.00 | 0.00 | 74 | 1008.8 | |
| 20260905023022 | 18 | 0.0 | 0.0 | 0.00 | 0.00 | 0.00 | 73 | 1008.8 | |
| 20260905022045 | 18 | 0.0 | 0.0 | 0.00 | 0.00 | 0.00 | 73 | 1008.8 | |
| 20260905021028 | 18 | 0.0 | 0.0 | 0.00 | 0.00 | 0.00 | 73 | 1009.1 | |
| 20260905020032 | 18 | 0.0 | 0.0 | 0.00 | 0.00 | 0.00 | 74 | 1009.0 | |
| 20260905015017 | 18 | 0.0 | 0.0 | 0.00 | 0.00 | 0.00 | 74 | 1009.0 | |
| 20260905014020 | 18 | 0.0 | 0.0 | 0.00 | 0.00 | 0.00 | 72 | 1009.1 | |
| 20260905013044 | 18 | 0.0 | 0.0 | 0.00 | 0.00 | 0.00 | 72 | 1009.2 | |
| 20260905012027 | 18 | 0.0 | 0.0 | 0.00 | 0.00 | 0.00 | 72 | 1009.2 | |
| 20260905011030 | 19 | 0.0 | 0.0 | 0.00 | 0.00 | 0.00 | 72 | 1009.2 | |
| 20260905010015 | 19 | 0.0 | 0.0 | 0.00 | 0.00 | 0.00 | 73 | 1009.1 | |
| 20260905005019 | 20 | 0.0 | 0.0 | 0.00 | 0.00 | 0.00 | 73 | 1009.0 | |
| 20260905004022 | 20 | 0.0 | 0.0 | 0.00 | 0.00 | 0.00 | 73 | 1009.0 | |
| 20260905003019 | 20 | 0.0 | 0.0 | 0.00 | 0.00 | 0.00 | 72 | 1009.1 | |
| 20260905002017 | 20 | 0.0 | 0.0 | 0.00 | 0.00 | 0.00 | 72 | 1009.1 | |
| 20260905001032 | 20 | 0.0 | 0.0 | 0.00 | 0.00 | 0.00 | 73 | 1008.9 | |
| 20260905000037 | 21 | 0.0 | 0.0 | 0.00 | 0.00 | 0.00 | 67 | 1008.7 | |
| 20260904235020 | 21 | 0.0 | 0.0 | 0.00 | 0.00 | 0.00 | 66 | 1008.4 | |
| 20260904234024 | 21 | 0.0 | 0.0 | 0.00 | 0.00 | 0.00 | 66 | 1008.4 | |
| 20260904233027 | 22 | 0.0 | 0.0 | 0.00 | 0.00 | 0.00 | 64 | 1008.4 | |
| 20260904232050 | 22 | 0.0 | 0.0 | 0.00 | 0.00 | 0.00 | 63 | 1008.4 | |
| 20260904231016 | 23 | 0.0 | 0.0 | 0.00 | 0.00 | 0.00 | 63 | 1008.3 | |
| 20260904230019 | 23 | 0.0 | 0.0 | 0.00 | 0.00 | 0.00 | 62 | 1008.4 | |
| 20260904225022 | 23 | 0.0 | 0.0 | 0.00 | 0.00 | 0.00 | 63 | 1008.4 | |
| 20260904224045 | 24 | 0.0 | 0.0 | 0.00 | 0.00 | 0.00 | 60 | 1008.2 | |
| 20260904223029 | 25 | 0.0 | 0.0 | 0.00 | 0.00 | 0.00 | 59 | 1008.1 | |
| 20260904222052 | 26 | 0.0 | 0.0 | 0.00 | 0.00 | 0.00 | 56 | 1007.9 | |
| 20260904221017 | 26 | 0.0 | 0.0 | 0.00 | 0.00 | 0.00 | 51 | 1008.0 | |
| 20260904220021 | 26 | 0.0 | 0.0 | 0.00 | 0.00 | 0.00 | 50 | 1007.9 | |
| 20260904215024 | 26 | 0.0 | 0.0 | 0.00 | 0.00 | 0.00 | 48 | 1007.9 | |
| 20260904214027 | 28 | 0.0 | 3.2 | 0.00 | 0.00 | 0.00 | 45 | 1008.1 | |
| 20260904213031 | 28 | 338 | 0.0 | 1.6 | 0.00 | 0.00 | 0.00 | 46 | 1008.1 |
| 20260904212016 | 28 | 0.0 | 3.2 | 0.00 | 0.00 | 0.00 | 47 | 1008.1 | |
| 20260904211019 | 28 | 0.0 | 3.2 | 0.00 | 0.00 | 0.00 | 46 | 1008.1 | |
| 20260904210022 | 29 | 217 | 1.6 | 9.7 | 0.00 | 0.00 | 0.00 | 44 | 1007.9 |
| 20260904205019 | 29 | 0.0 | 0.0 | 0.00 | 0.00 | 0.00 | 46 | 1007.9 | |
| 20260904204017 | 28 | 0.0 | 0.0 | 0.00 | 0.00 | 0.00 | 48 | 1008.0 | |
| 20260904203032 | 27 | 0.0 | 0.0 | 0.00 | 0.00 | 0.00 | 46 | 1008.1 | |
| 20260904202017 | 27 | 0.0 | 0.0 | 0.00 | 0.00 | 0.00 | 45 | 1008.1 | |
| 20260904201021 | 28 | 210 | 1.6 | 4.8 | 0.00 | 0.00 | 0.00 | 47 | 1007.8 |
| 20260904200024 | 28 | 0.0 | 1.6 | 0.00 | 0.00 | 0.00 | 47 | 1008.0 | |
| 20260904195027 | 28 | 0.0 | 0.0 | 0.00 | 0.00 | 0.00 | 49 | 1007.7 | |
| 20260904194030 | 29 | 0.0 | 0.0 | 0.00 | 0.00 | 0.00 | 46 | 1007.7 | |
| 20260904193016 | 30 | 0.0 | 8.0 | 0.00 | 0.00 | 0.00 | 42 | 1007.7 | |
| 20260904192039 | 31 | 90 | 1.6 | 8.0 | 0.00 | 0.00 | 0.00 | 41 | 1007.7 |
| 20260904191022 | 31 | 338 | 0.0 | 8.0 | 0.00 | 0.00 | 0.00 | 41 | 1007.8 |
| 20260904190026 | 30 | 203 | 3.2 | 16.1 | 0.00 | 0.00 | 0.00 | 41 | 1008.0 |
| 20260904185029 | 30 | 0.0 | 1.6 | 0.00 | 0.00 | 0.00 | 42 | 1008.0 | |
| 20260904184052 | 29 | 180 | 0.0 | 4.8 | 0.00 | 0.00 | 0.00 | 44 | 1008.0 |
| 20260904183037 | 30 | 204 | 3.2 | 9.7 | 0.00 | 0.00 | 0.00 | 43 | 1008.0 |
| 20260904182041 | 30 | 228 | 1.6 | 6.4 | 0.00 | 0.00 | 0.00 | 43 | 1007.9 |
| 20260904181024 | 30 | 203 | 1.6 | 9.7 | 0.00 | 0.00 | 0.00 | 45 | 1008.0 |
| 20260904180027 | 29 | 270 | 0.0 | 3.2 | 0.00 | 0.00 | 0.00 | 46 | 1008.1 |
| 20260904175031 | 30 | 158 | 1.6 | 9.7 | 0.00 | 0.00 | 0.00 | 46 | 1008.0 |
| 20260904174036 | 30 | 0.0 | 6.4 | 0.00 | 0.00 | 0.00 | 50 | 1008.0 | |
| 20260904173019 | 29 | 248 | 0.0 | 3.2 | 0.00 | 0.00 | 0.00 | 51 | 1008.2 |
| 20260904172022 | 27 | 0.0 | 0.0 | 0.00 | 0.00 | 0.00 | 55 | 1008.4 |